Location: Round Knob
(37.2473°N, 88.7376°W)
Time: 20:52:34
(UTC+00:00)

X-37B - Pass Details

Date: 29 September 2021
Orbit: 385 x 389 km, 45.0° (Epoch: 13 October)

Event Time Altitude Azimuth Distance (km) Brightness Sun altitude
Exits shadow 10:44:11 12° 320° (NW) 1,293 2.9 -13.7°
Maximum altitude 10:46:23 22° 10° (N) 892 2.6 -13.3°
Drops below altitude 10° 10:48:59 10° 65° (ENE) 1,413 4.7 -12.7°
Sets 10:51:20 0° 81° (E) 2,267 6.6 -12.3°
